Luverne, MN

6:18 PM CDT on April 28, 2017 (GMT -0500)
Luverne

Weather History for KLYV - June, 2013

Change the Weather History Date:

Tuesday, June 25, 2013

  Actual Average (KPQN) Record (KPQN)
Temperature  
Mean Temperature 78 °F -  
Max Temperature 87 °F 78 °F 93 °F (2001)
Min Temperature 68 °F 57 °F 42 °F (2004)
Cooling Degree Days 12    
Growing Degree Days 28 (Base 50)    
Moisture  
Dew Point 67 °F    
Average Humidity 72    
Maximum Humidity 94    
Minimum Humidity 45    
Precipitation  
Precipitation 0.00 in - - ()
Sea Level Pressure  
Sea Level Pressure 29.74 in    
Wind  
Wind Speed 4 mph (SSE)    
Max Wind Speed 15 mph    
Max Gust Speed 21 mph    
Visibility 10 miles    
Events      
Averages and records for this station are not official NWS values.
T = Trace of Precipitation, MM = Missing Value Source: NWS Daily Summary

Daily Weather History Graph

Daily Weather History Graph

Search for Another Location

Airport or City:

Trip Planner

Search our weather history database for the weather conditions in past years. The results will help you decide how hot, cold, wet, or windy it might be!

Date:

Astronomy

Jun. 25, 2013 Rise Set
Actual Time 5:44 AM CDT 9:10 PM CDT
Civil Twilight 5:08 AM CDT 9:46 PM CDT
Nautical Twilight 4:21 AM CDT 10:33 PM CDT
Astronomical Twilight 3:22 AM CDT 11:32 PM CDT
Moon 10:49 PM CDT (6/25) 8:31 AM CDT (6/25)
Length of Visible Light 16h 37m
Length of Day
15h 25m
Waning Gibbous, 92% of the Moon is Illuminated
Jun 25
Waning Gibbous
Jun 29
Last Quarter
Jul 8
New
Jul 15
First Quarter
Jul 22
Full

Hourly Weather History & Observations

Time (CDT) Temp. Heat Index Dew Point Humidity Pressure Visibility Wind Dir Wind Speed Gust Speed Precip Events Conditions
12:13 AM 69.8 °F - 64.4 °F 83% 29.78 in 10.0 mi SE 5.8 mph - N/A   Scattered Clouds
12:34 AM 69.8 °F - 64.4 °F 83% 29.78 in 10.0 mi SE 4.6 mph - N/A   Clear
12:54 AM 69.8 °F - 64.4 °F 83% 29.80 in 10.0 mi SE 4.6 mph - N/A   Scattered Clouds
1:13 AM 69.8 °F - 64.4 °F 83% 29.79 in 10.0 mi Calm Calm - N/A   Scattered Clouds
1:34 AM 69.8 °F - 64.4 °F 83% 29.79 in 10.0 mi Calm Calm - N/A   Clear
1:53 AM 68.0 °F - 64.4 °F 88% 29.78 in 10.0 mi Calm Calm - N/A   Clear
2:13 AM 69.8 °F - 64.4 °F 83% 29.78 in 10.0 mi Calm Calm - N/A   Clear
2:34 AM 68.0 °F - 64.4 °F 88% 29.78 in 10.0 mi Calm Calm - N/A   Clear
2:53 AM 68.0 °F - 64.4 °F 88% 29.77 in 10.0 mi ESE 3.5 mph - N/A   Clear
3:14 AM 69.8 °F - 64.4 °F 83% 29.76 in 10.0 mi Calm Calm - N/A   Clear
3:34 AM 69.8 °F - 64.4 °F 83% 29.76 in 10.0 mi Calm Calm - N/A   Clear
3:53 AM 69.8 °F - 64.4 °F 83% 29.75 in 10.0 mi Calm Calm - N/A   Clear
4:14 AM 69.8 °F - 64.4 °F 83% 29.74 in 10.0 mi Calm Calm - N/A   Clear
4:34 AM 69.8 °F - 64.4 °F 83% 29.72 in 10.0 mi Calm Calm - N/A   Clear
4:53 AM 68.0 °F - 64.4 °F 88% 29.73 in 7.0 mi ENE 4.6 mph - N/A   Clear
5:14 AM 68.0 °F - 64.4 °F 88% 29.74 in 7.0 mi ENE 3.5 mph - N/A   Clear
5:34 AM 68.0 °F - 64.4 °F 88% 29.75 in 7.0 mi Calm Calm - N/A   Scattered Clouds
5:53 AM 68.0 °F - 64.4 °F 88% 29.76 in 7.0 mi ESE 3.5 mph - N/A   Scattered Clouds
6:14 AM 68.0 °F - 64.4 °F 88% 29.78 in 7.0 mi SE 5.8 mph - N/A   Clear
6:34 AM 69.8 °F - 66.2 °F 88% 29.76 in 5.0 mi East 4.6 mph - N/A   Clear
6:53 AM 69.8 °F - 66.2 °F 88% 29.75 in 7.0 mi ENE 8.1 mph - N/A   Clear
7:14 AM 69.8 °F - 66.2 °F 88% 29.75 in 7.0 mi East 5.8 mph - N/A   Clear
7:34 AM 69.8 °F - 66.2 °F 88% 29.75 in 7.0 mi East 4.6 mph - N/A   Clear
7:53 AM 69.8 °F - 68.0 °F 94% 29.74 in 7.0 mi East 8.1 mph - N/A   Clear
8:14 AM 71.6 °F - 68.0 °F 88% 29.75 in 7.0 mi East 4.6 mph - N/A   Clear
8:33 AM 71.6 °F - 68.0 °F 88% 29.74 in 10.0 mi East 8.1 mph - N/A   Clear
8:54 AM 73.4 °F - 68.0 °F 83% 29.75 in 10.0 mi ESE 8.1 mph - N/A   Clear
9:14 AM 75.2 °F - 68.0 °F 78% 29.75 in 10.0 mi ESE 9.2 mph - N/A   Clear
9:33 AM 77.0 °F - 68.0 °F 74% 29.78 in 10.0 mi SSE 12.7 mph 20.7 mph N/A   Scattered Clouds
9:54 AM 77.0 °F - 68.0 °F 74% 29.78 in 10.0 mi SE 15.0 mph - N/A   Scattered Clouds
10:14 AM 77.0 °F - 68.0 °F 74% 29.80 in 10.0 mi SSE 12.7 mph 18.4 mph N/A   Scattered Clouds
10:33 AM 78.8 °F - 68.0 °F 69% 29.78 in 10.0 mi South 10.4 mph 17.3 mph N/A   Scattered Clouds
10:54 AM 78.8 °F - 66.2 °F 65% 29.77 in 10.0 mi SSW 5.8 mph - N/A   Clear
11:13 AM 80.6 °F 82.7 °F 66.2 °F 61% 29.76 in 10.0 mi Calm Calm - N/A   Clear
11:33 AM 80.6 °F 83.2 °F 68.0 °F 65% 29.75 in 10.0 mi SSE 3.5 mph - N/A   Clear
11:53 AM 82.4 °F 83.9 °F 64.4 °F 54% 29.74 in 10.0 mi Calm Calm - N/A   Clear
12:13 PM 82.4 °F 84.6 °F 66.2 °F 58% 29.73 in 10.0 mi Calm Calm - N/A   Clear
12:34 PM 86.0 °F 89.4 °F 68.0 °F 55% 29.73 in 10.0 mi Calm Calm - N/A   Clear
12:53 PM 86.0 °F 88.2 °F 66.2 °F 51% 29.74 in 10.0 mi SE 3.5 mph - N/A   Clear
1:13 PM 87.8 °F 89.4 °F 64.4 °F 46% 29.73 in 10.0 mi WSW 11.5 mph 17.3 mph N/A   Clear
1:34 PM 87.8 °F 90.4 °F 66.2 °F 49% 29.73 in 10.0 mi South 5.8 mph - N/A   Clear
1:53 PM 86.0 °F 88.2 °F 66.2 °F 51% 29.73 in 10.0 mi South 8.1 mph - N/A   Clear
2:13 PM 86.0 °F 87.3 °F 64.4 °F 48% 29.73 in 10.0 mi SSE 5.8 mph - N/A   Clear
2:34 PM 86.0 °F 87.3 °F 64.4 °F 48% 29.73 in 10.0 mi South 4.6 mph - N/A   Clear
2:53 PM 86.0 °F 87.3 °F 64.4 °F 48% 29.73 in 10.0 mi SSE 5.8 mph - N/A   Clear
3:14 PM 86.0 °F 86.6 °F 62.6 °F 45% 29.73 in 10.0 mi South 6.9 mph - N/A   Clear
3:33 PM 86.0 °F 86.6 °F 62.6 °F 45% 29.73 in 10.0 mi South 11.5 mph - N/A   Clear
3:53 PM 84.2 °F 85.6 °F 64.4 °F 51% 29.74 in 10.0 mi South 10.4 mph - N/A   Clear
4:14 PM 82.4 °F 83.9 °F 64.4 °F 54% 29.73 in 10.0 mi South 8.1 mph - N/A   Clear
4:33 PM 86.0 °F 87.3 °F 64.4 °F 48% 29.73 in 10.0 mi SSE 4.6 mph - N/A   Clear
4:53 PM 86.0 °F 87.3 °F 64.4 °F 48% 29.72 in 10.0 mi SSW 10.4 mph - N/A   Clear
5:14 PM 86.0 °F 88.2 °F 66.2 °F 51% 29.72 in 10.0 mi SSE 9.2 mph - N/A   Clear
5:33 PM 86.0 °F 88.2 °F 66.2 °F 51% 29.72 in 10.0 mi SSE 8.1 mph - N/A   Clear
5:53 PM 86.0 °F 89.4 °F 68.0 °F 55% 29.72 in 10.0 mi South 10.4 mph - N/A   Clear
6:14 PM 86.0 °F 89.4 °F 68.0 °F 55% 29.71 in 10.0 mi SSW 12.7 mph 16.1 mph N/A   Clear
6:33 PM 86.0 °F 89.4 °F 68.0 °F 55% 29.71 in 10.0 mi SSW 11.5 mph - N/A   Scattered Clouds
6:53 PM 84.2 °F 87.3 °F 68.0 °F 58% 29.71 in 10.0 mi SSW 10.4 mph - N/A   Clear
7:14 PM 82.4 °F 85.4 °F 68.0 °F 62% 29.71 in 10.0 mi SSW 6.9 mph - N/A   Clear
7:33 PM 82.4 °F 86.3 °F 69.8 °F 66% 29.71 in 10.0 mi SSW 4.6 mph - N/A   Clear
7:53 PM 82.4 °F 86.3 °F 69.8 °F 66% 29.71 in 10.0 mi South 4.6 mph - N/A   Clear
8:14 PM 80.6 °F 83.9 °F 69.8 °F 70% 29.71 in 10.0 mi South 3.5 mph - N/A   Clear
8:33 PM 80.6 °F 84.6 °F 71.6 °F 74% 29.71 in 10.0 mi South 4.6 mph - N/A   Clear
8:53 PM 78.8 °F - 71.6 °F 78% 29.72 in 10.0 mi Calm Calm - N/A   Clear
9:14 PM 77.0 °F - 71.6 °F 83% 29.71 in 10.0 mi South 3.5 mph - N/A   Clear
9:33 PM 77.0 °F - 71.6 °F 83% 29.72 in 10.0 mi Calm Calm - N/A   Clear
9:53 PM 77.0 °F - 69.8 °F 78% 29.72 in 10.0 mi SSE 3.5 mph - N/A   Clear
10:14 PM 77.0 °F - 71.6 °F 83% 29.72 in 10.0 mi SSE 4.6 mph - N/A   Clear
10:33 PM 75.2 °F - 69.8 °F 83% 29.72 in 10.0 mi Calm Calm - N/A   Clear
10:54 PM 73.4 °F - 69.8 °F 88% 29.72 in 10.0 mi SSE 3.5 mph - N/A   Clear
11:13 PM 73.4 °F - 69.8 °F 88% 29.71 in 10.0 mi Calm Calm - N/A   Clear
11:33 PM 71.6 °F - 69.8 °F 94% 29.71 in 10.0 mi South 3.5 mph - N/A   Clear
11:54 PM 73.4 °F - 69.8 °F 88% 29.71 in 10.0 mi SSE 3.5 mph - N/A   Clear